| time (UTC) | temp F | wind direction | speed MPH | gust MPH | rain 1hr in | rain 24hr in | rain mn in | humidity % | barometer mb |
| 20260831210050 | 77 | 115 | 8.0 | 14.0 | 0.00 | 0.00 | 0.00 | 86 | 1019.7 |
| 20260831204547 | 77 | 85 | 9.0 | 13.0 | 0.00 | 0.00 | 0.00 | 84 | 1019.5 |
| 20260831203121 | 78 | 110 | 8.0 | 12.0 | 0.00 | 0.00 | 0.00 | 84 | 1019.3 |
| 20260831201604 | 78 | 104 | 8.0 | 11.0 | 0.00 | 0.00 | 0.00 | 82 | 1019.2 |
| 20260831200137 | 78 | 120 | 7.0 | 11.0 | 0.00 | 0.00 | 0.00 | 84 | 1019.3 |
| 20260831194559 | 78 | 61 | 7.0 | 12.0 | 0.00 | 0.00 | 0.00 | 85 | 1019.4 |
| 20260831193051 | 78 | 82 | 8.0 | 14.0 | 0.00 | 0.00 | 0.00 | 86 | 1019.5 |
| 20260831191548 | 78 | 41 | 7.0 | 12.0 | 0.00 | 0.00 | 0.00 | 86 | 1019.5 |
| 20260831190100 | 78 | 77 | 7.0 | 13.0 | 0.00 | 0.00 | 0.00 | 85 | 1019.6 |
| 20260831184554 | 78 | 74 | 8.0 | 13.0 | 0.00 | 0.00 | 0.00 | 85 | 1019.7 |
| 20260831183050 | 77 | 80 | 8.0 | 12.0 | 0.00 | 0.00 | 0.00 | 86 | 1019.7 |
| 20260831181552 | 78 | 35 | 8.0 | 13.0 | 0.00 | 0.00 | 0.00 | 85 | 1019.7 |
| 20260831180058 | 79 | 134 | 4.0 | 9.0 | 0.00 | 0.00 | 0.00 | 83 | 1019.9 |
| 20260831174553 | 80 | 132 | 4.0 | 10.0 | 0.00 | 0.00 | 0.00 | 81 | 1019.7 |
| 20260831173051 | 79 | 157 | 4.0 | 10.0 | 0.00 | 0.00 | 0.00 | 81 | 1019.6 |
| 20260831171555 | 79 | 135 | 5.0 | 10.0 | 0.00 | 0.00 | 0.00 | 81 | 1019.9 |
| 20260831170055 | 79 | 144 | 5.0 | 10.0 | 0.00 | 0.00 | 0.00 | 81 | 1019.8 |
| 20260831164552 | 79 | 140 | 4.0 | 11.0 | 0.00 | 0.00 | 0.00 | 81 | 1019.7 |
| 20260831163054 | 80 | 140 | 5.0 | 9.0 | 0.00 | 0.00 | 0.00 | 81 | 1019.9 |
| 20260831161605 | 80 | 130 | 6.0 | 10.0 | 0.00 | 0.00 | 0.00 | 80 | 1020.2 |
| 20260831154622 | 78 | 103 | 7.0 | 11.0 | 0.00 | 0.00 | 0.00 | 82 | 1020.2 |
| 20260831153054 | 79 | 96 | 6.0 | 11.0 | 0.00 | 0.00 | 0.00 | 82 | 1020.4 |
| 20260831151553 | 79 | 146 | 6.0 | 11.0 | 0.00 | 0.00 | 0.00 | 82 | 1020.5 |
| 20260831150058 | 78 | 158 | 6.0 | 14.0 | 0.00 | 0.00 | 0.00 | 83 | 1020.3 |
| 20260831144555 | 78 | 130 | 6.0 | 11.0 | 0.00 | 0.00 | 0.00 | 83 | 1020.3 |
| 20260831143053 | 77 | 54 | 8.0 | 12.0 | 0.00 | 0.00 | 0.00 | 85 | 1020.3 |
| 20260831141558 | 79 | 71 | 6.0 | 11.0 | 0.00 | 0.00 | 0.00 | 82 | 1020.2 |
| 20260831140059 | 77 | 92 | 5.0 | 10.0 | 0.00 | 0.00 | 0.00 | 85 | 1020.1 |
| 20260831134557 | 78 | 60 | 6.0 | 11.0 | 0.00 | 0.00 | 0.00 | 82 | 1020.4 |
| 20260831133056 | 77 | 44 | 6.0 | 12.0 | 0.00 | 0.00 | 0.00 | 84 | 1020.2 |
| 20260831131553 | 77 | 74 | 7.0 | 11.0 | 0.00 | 0.00 | 0.00 | 88 | 1020.1 |
| 20260831130059 | 77 | 92 | 5.0 | 9.0 | 0.00 | 0.00 | 0.00 | 91 | 1020.2 |
| 20260831124556 | 76 | 48 | 3.0 | 7.0 | 0.00 | 0.00 | 0.00 | 93 | 1020.0 |
| 20260831123054 | 76 | 248 | 2.0 | 4.0 | 0.00 | 0.00 | 0.00 | 95 | 1019.8 |
| 20260831121549 | 75 | 248 | 1.0 | 3.0 | 0.00 | 0.00 | 0.00 | 96 | 1019.8 |
| 20260831120131 | 75 | 0 | 1.0 | 3.0 | 0.00 | 0.00 | 0.00 | 96 | 1019.8 |
| 20260831114554 | 75 | 0 | 1.0 | 3.0 | 0.00 | 0.00 | 0.00 | 96 | 1019.7 |
| 20260831113054 | 75 | 248 | 1.0 | 2.0 | 0.00 | 0.00 | 0.00 | 96 | 1019.6 |
| 20260831111559 | 75 | 0 | 0.0 | 2.0 | 0.00 | 0.00 | 0.00 | 96 | 1019.6 |
| 20260831110055 | 74 | 0 | 0.0 | 1.0 | 0.00 | 0.00 | 0.00 | 96 | 1019.4 |
| 20260831104602 | 74 | 0 | 0.0 | 2.0 | 0.00 | 0.00 | 0.00 | 96 | 1019.3 |
| 20260831103057 | 74 | 248 | 1.0 | 3.0 | 0.00 | 0.00 | 0.00 | 96 | 1019.2 |
| 20260831101603 | 74 | 248 | 1.0 | 4.0 | 0.00 | 0.00 | 0.00 | 95 | 1019.0 |
| 20260831100106 | 73 | 0 | 0.0 | 2.0 | 0.00 | 0.00 | 0.00 | 95 | 1019.0 |
| 20260831094554 | 74 | 0 | 0.0 | 2.0 | 0.00 | 0.00 | 0.00 | 95 | 1018.8 |
| 20260831093055 | 74 | 0 | 0.0 | 2.0 | 0.00 | 0.00 | 0.00 | 95 | 1018.8 |
| 20260831091547 | 74 | 248 | 0.0 | 4.0 | 0.00 | 0.00 | 0.00 | 95 | 1018.7 |
| 20260831084556 | 74 | 248 | 3.0 | 9.0 | 0.00 | 0.00 | 0.00 | 94 | 1018.7 |
| 20260831083057 | 74 | 223 | 2.0 | 5.0 | 0.00 | 0.00 | 0.00 | 94 | 1018.6 |
| 20260831081556 | 74 | 223 | 2.0 | 5.0 | 0.00 | 0.00 | 0.00 | 94 | 1018.8 |
| 20260831080051 | 74 | 0 | 2.0 | 4.0 | 0.00 | 0.00 | 0.00 | 94 | 1018.9 |
| 20260831074549 | 75 | 223 | 2.0 | 5.0 | 0.00 | 0.00 | 0.00 | 94 | 1018.9 |
| 20260831073102 | 75 | 223 | 1.0 | 7.0 | 0.00 | 0.00 | 0.00 | 94 | 1019.0 |
| 20260831071556 | 75 | 223 | 2.0 | 5.0 | 0.00 | 0.00 | 0.00 | 94 | 1018.9 |
| 20260831070103 | 75 | 212 | 2.0 | 8.0 | 0.00 | 0.00 | 0.00 | 94 | 1019.1 |
| 20260831064547 | 75 | 226 | 3.0 | 6.0 | 0.00 | 0.00 | 0.00 | 94 | 1019.1 |
| 20260831063054 | 75 | 227 | 3.0 | 7.0 | 0.00 | 0.00 | 0.00 | 93 | 1019.2 |
| 20260831061600 | 75 | 215 | 2.0 | 7.0 | 0.00 | 0.00 | 0.00 | 93 | 1019.2 |
| 20260831060105 | 75 | 239 | 2.0 | 7.0 | 0.00 | 0.00 | 0.00 | 93 | 1019.3 |
| 20260831054551 | 75 | 225 | 3.0 | 7.0 | 0.00 | 0.00 | 0.00 | 93 | 1019.2 |
| 20260831053110 | 75 | 228 | 4.0 | 7.0 | 0.00 | 0.00 | 0.00 | 93 | 1019.3 |
| 20260831051604 | 75 | 236 | 4.0 | 9.0 | 0.00 | 0.00 | 0.00 | 92 | 1019.2 |
| 20260831050059 | 75 | 209 | 2.0 | 10.0 | 0.00 | 0.00 | 0.00 | 92 | 1019.3 |
| 20260831044553 | 75 | 236 | 4.0 | 10.0 | 0.00 | 0.00 | 0.00 | 92 | 1019.2 |
| 20260831043102 | 75 | 222 | 4.0 | 9.0 | 0.00 | 0.00 | 0.00 | 91 | 1019.3 |
| 20260831041555 | 75 | 208 | 5.0 | 12.0 | 0.00 | 0.00 | 0.00 | 91 | 1019.3 |
| 20260831040055 | 75 | 209 | 4.0 | 10.0 | 0.00 | 0.00 | 0.00 | 91 | 1019.5 |
| 20260831034559 | 75 | 261 | 3.0 | 10.0 | 0.00 | 0.00 | 0.00 | 91 | 1019.6 |
| 20260831033106 | 75 | 234 | 4.0 | 8.0 | 0.00 | 0.00 | 0.00 | 90 | 1019.6 |
| 20260831031548 | 75 | 219 | 4.0 | 9.0 | 0.00 | 0.00 | 0.00 | 90 | 1019.6 |
| 20260831030059 | 75 | 232 | 4.0 | 10.0 | 0.00 | 0.00 | 0.00 | 90 | 1019.7 |
| 20260831024551 | 76 | 221 | 4.0 | 8.0 | 0.00 | 0.00 | 0.00 | 89 | 1020.0 |
| 20260831023048 | 76 | 213 | 3.0 | 8.0 | 0.00 | 0.00 | 0.00 | 88 | 1020.1 |
| 20260831021554 | 76 | 207 | 5.0 | 8.0 | 0.00 | 0.00 | 0.00 | 88 | 1019.9 |
| 20260831020108 | 76 | 175 | 5.0 | 9.0 | 0.00 | 0.00 | 0.00 | 88 | 1019.9 |
| 20260831014553 | 76 | 205 | 3.0 | 9.0 | 0.00 | 0.00 | 0.00 | 87 | 1020.1 |
| 20260831013104 | 77 | 184 | 5.0 | 10.0 | 0.00 | 0.00 | 0.00 | 86 | 1020.1 |
| 20260831011553 | 77 | 250 | 4.0 | 9.0 | 0.00 | 0.00 | 0.00 | 86 | 1020.2 |
| 20260831010050 | 77 | 196 | 4.0 | 9.0 | 0.00 | 0.00 | 0.00 | 85 | 1020.0 |
| 20260831004625 | 77 | 180 | 4.0 | 8.0 | 0.00 | 0.00 | 0.00 | 85 | 1019.9 |
| 20260831003055 | 78 | 191 | 5.0 | 11.0 | 0.00 | 0.00 | 0.00 | 84 | 1019.9 |
| 20260831001552 | 78 | 182 | 4.0 | 9.0 | 0.00 | 0.00 | 0.00 | 84 | 1019.8 |
| 20260831000049 | 78 | 211 | 5.0 | 11.0 | 0.00 | 0.00 | 0.00 | 83 | 1019.8 |
| 20260830234556 | 79 | 172 | 6.0 | 13.0 | 0.00 | 0.00 | 0.00 | 82 | 1019.7 |
| 20260830233054 | 80 | 190 | 6.0 | 12.0 | 0.00 | 0.00 | 0.00 | 81 | 1019.6 |
| 20260830231552 | 81 | 167 | 5.0 | 14.0 | 0.00 | 0.00 | 0.00 | 80 | 1019.7 |
| 20260830230049 | 81 | 176 | 5.0 | 10.0 | 0.00 | 0.00 | 0.00 | 80 | 1019.6 |
| 20260830224553 | 82 | 188 | 3.0 | 10.0 | 0.00 | 0.00 | 0.00 | 80 | 1019.5 |
| 20260830223054 | 82 | 201 | 4.0 | 12.0 | 0.00 | 0.00 | 0.00 | 79 | 1019.5 |
| 20260830221550 | 82 | 153 | 4.0 | 14.0 | 0.00 | 0.00 | 0.00 | 78 | 1019.5 |
| 20260830214554 | 83 | 156 | 3.0 | 13.0 | 0.00 | 0.00 | 0.00 | 77 | 1019.2 |
| 20260830213056 | 84 | 188 | 5.0 | 10.0 | 0.00 | 0.00 | 0.00 | 76 | 1019.4 |
| 20260830211608 | 84 | 201 | 4.0 | 10.0 | 0.00 | 0.00 | 0.00 | 75 | 1019.3 |